CW0630 Weather Reports


Display with metric or nautical units.
time (UTC)temp
F
wind
direction
speed
MPH
gust
MPH
rain 1hr
in
rain 24hr
in
rain mn
in
humidity
%
barometer
mb
20220524151029 58 360 10.0 10.0 0.04 1.51 1.38 95 1022.5
20220524141021 58 40 2.0 2.0 0.09 1.47 1.34 95 1022.5
20220524131029 58 82 4.0 4.0 0.10 1.39 1.26 95 1022.3
20220524121024 59 5 4.0 5.0 0.19 1.30 1.17 96 1022.1
20220524111018 59 70 2.0 2.0 0.13 1.12 0.99 96 1021.5
20220524101012 58 5 3.0 3.0 0.20 1.00 0.87 96 1021.2
20220524091021 59 355 3.0 4.0 0.24 0.81 0.68 95 1020.8
20220524081012 59 36 4.0 4.0 0.23 0.59 0.46 95 1020.5
20220524071017 59 87 2.0 2.0 0.06 0.37 0.24 95 1021.2
20220524061027 59 54 5.0 5.0 0.11 0.32 0.19 95 1021.9
20220524051030 59 342 3.0 3.0 0.09 0.22 0.09 94 1023.6
20220524041016 60 360 3.0 3.0 0.03 0.13 0.00 93 1022.9
20220524031019 61 18 1.0 1.0 0.04 0.10 0.10 94 1023.1
20220524021022 61 18 3.0 3.0 0.01 0.06 0.06 93 1022.6
20220524011028 61 9 0.0 4.0 0.01 0.06 0.06 93 1022.0
20220524001020 62 25 2.0 3.0 0.03 0.05 0.05 91 1021.8
20220523231022 63 355 3.0 4.0 0.02 0.03 0.03 88 1023.0
20220523221017 67 360 3.0 3.0 0.00 0.01 0.01 78 1022.7
20220523211034 69 19 5.0 5.0 0.00 0.01 0.01 72 1021.6
20220523201025 68 309 3.0 7.0 0.01 0.01 0.01 77 1022.5
20220523191017 71 344 5.0 5.0 0.00 0.00 0.00 70 1023.0
20220523181016 73 319 2.0 4.0 0.00 0.00 0.00 65 1022.9
20220523171015 73 32 3.0 4.0 0.00 0.00 0.00 66 1023.4
20220523161015 73 360 3.0 3.0 0.00 0.00 0.00 64 1023.5